,,Stat6,,Stat2,,Stat8,,Stat9,,Stat10,,Wind1,,Wind1,
time,status,PA1M_AVG,status,PR1M_SUM,status,RH1M_AVG,status,SR1M_AVG,status,TA1M_AVG,status,W1dAve1m,status,W1sAve1m,
2008-01-05, 00:00:00,VALID,919.511,VALID,0,VALID,96.1206,VALID,-0.101885,VALID,18.6614,VALID,139,VALID,1.42714,
2008-01-05, 00:01:00,VALID,919.524,VALID,0,VALID,96.0812,VALID,-0.101885,VALID,18.6385,VALID,136,VALID,1.23384,
2008-01-05, 00:02:00,VALID,919.524,VALID,0,VALID,96.1549,VALID,-0.0849042,VALID,18.6026,VALID,139,VALID,0.847942,
2008-01-05, 00:03:00,VALID,919.523,VALID,0,VALID,96.174,VALID,-0.0679233,VALID,18.5933,VALID,140,VALID,0.822266,
2008-01-05, 00:04:00,VALID,919.518,VALID,0,VALID,96.1244,VALID,-0.0509425,VALID,18.5477,VALID,144,VALID,0.95141,
2008-01-05, 00:05:00,VALID,919.503,VALID,0,VALID,96.2032,VALID,-0.0509425,VALID,18.4956,VALID,140,VALID,0.950521,
2008-01-05, 00:06:00,VALID,919.469,VALID,0,VALID,96.3419,VALID,-0.0679233,VALID,18.4506,VALID,141,VALID,1.0119,
2008-01-05, 00:07:00,VALID,919.461,VALID,0,VALID,96.5784,VALID,-0.101885,VALID,18.4212,VALID,137,VALID,1.13849,
2008-01-05, 00:08:00,VALID,919.452,VALID,0,VALID,96.6788,VALID,-0.101885,VALID,18.4022,VALID,133,VALID,1.16847,
2008-01-05, 00:09:00,VALID,919.46,VALID,0,VALID,96.778,VALID,-0.101885,VALID,18.3725,VALID,137,VALID,1.04835,
2008-01-05, 00:10:00,VALID,919.446,VALID,0,VALID,96.9624,VALID,-0.101885,VALID,18.3538,VALID,140,VALID,1.04805,
2008-01-05, 00:11:00,VALID,919.435,VALID,0,VALID,97.2523,VALID,-0.101885,VALID,18.3568,VALID,144,VALID,0.961868,
2008-01-05, 00:12:00,VALID,919.428,VALID,0,VALID,97.3388,VALID,-0.0339617,VALID,18.3491,VALID,147,VALID,1.06504,
2008-01-05, 00:13:00,VALID,919.418,VALID,0,VALID,97.5194,VALID,-0.0169808,VALID,18.3684,VALID,157,VALID,0.728609,
2008-01-05, 00:14:00,VALID,919.414,VALID,0,VALID,97.747,VALID,-0.0169808,VALID,18.4008,VALID,162,VALID,0,
2008-01-05, 00:15:00,VALID,919.423,VALID,0,VALID,97.8017,VALID,0.0169808,VALID,18.4265,VALID,160,VALID,0.119284,
2008-01-05, 00:16:00,VALID,919.41,VALID,0,VALID,97.8398,VALID,0.0169808,VALID,18.4529,VALID,148,VALID,1.004,
2008-01-05, 00:17:00,VALID,919.4,VALID,0,VALID,97.9937,VALID,0,VALID,18.4756,VALID,149,VALID,1.13536,
2008-01-05, 00:18:00,VALID,919.397,VALID,0,VALID,98.1564,VALID,0,VALID,18.5111,VALID,148,VALID,1.16687,
2008-01-05, 00:19:00,VALID,919.402,VALID,0,VALID,98.2505,VALID,0,VALID,18.5729,VALID,146,VALID,1.30429,
2008-01-05, 00:20:00,VALID,919.388,VALID,0,VALID,98.1323,VALID,0,VALID,18.6373,VALID,140,VALID,1.18848,
2008-01-05, 00:21:00,VALID,919.388,VALID,0,VALID,97.9314,VALID,0,VALID,18.689,VALID,143,VALID,1.12778,
2008-01-05, 00:22:00,VALID,919.386,VALID,0,VALID,97.6796,VALID,0.0339617,VALID,18.7316,VALID,146,VALID,1.04978,
2008-01-05, 00:23:00,VALID,919.358,VALID,0,VALID,97.5829,VALID,0.0509425,VALID,18.7474,VALID,149,VALID,1.24371,
2008-01-05, 00:24:00,VALID,919.342,VALID,0,VALID,97.3947,VALID,0.0849042,VALID,18.7636,VALID,144,VALID,0.932927,
2008-01-05, 00:25:00,VALID,919.32,VALID,0,VALID,97.5117,VALID,0,VALID,18.7803,VALID,143,VALID,1.09319,
2008-01-05, 00:26:00,VALID,919.333,VALID,0,VALID,97.368,VALID,0.0339617,VALID,18.8023,VALID,150,VALID,0.966933,
2008-01-05, 00:27:00,VALID,919.302,VALID,0,VALID,97.218,VALID,0,VALID,18.799,VALID,151,VALID,0.935082,
2008-01-05, 00:28:00,VALID,919.295,VALID,0,VALID,97.2027,VALID,0.0169808,VALID,18.7962,VALID,155,VALID,1.05621,
2008-01-05, 00:29:00,VALID,919.286,VALID,0,VALID,97.279,VALID,0,VALID,18.7995,VALID,160,VALID,1.41973,
2008-01-05, 00:30:00,VALID,919.272,VALID,0,VALID,97.335,VALID,0,VALID,18.8127,VALID,154,VALID,1.03906,
2008-01-05, 00:31:00,VALID,919.246,VALID,0,VALID,97.2231,VALID,0,VALID,18.8125,VALID,157,VALID,0.763021,
2008-01-05, 00:32:00,VALID,919.215,VALID,0,VALID,97.1302,VALID,0.0169808,VALID,18.8159,VALID,150,VALID,0.981534,
2008-01-05, 00:33:00,VALID,919.194,VALID,0,VALID,97.1264,VALID,0.0169808,VALID,18.8,VALID,160,VALID,0.705915,
2008-01-05, 00:34:00,VALID,919.168,VALID,0,VALID,97.246,VALID,0,VALID,18.78,VALID,153,VALID,0.958333,
2008-01-05, 00:35:00,VALID,919.161,VALID,0,VALID,97.3134,VALID,-0.0339617,VALID,18.7907,VALID,149,VALID,1.14082,
2008-01-05, 00:36:00,VALID,919.157,VALID,0,VALID,97.4494,VALID,-0.0169808,VALID,18.7703,VALID,150,VALID,0.929688,
2008-01-05, 00:37:00,VALID,919.15,VALID,0,VALID,97.5194,VALID,0,VALID,18.7708,VALID,152,VALID,1.00594,
2008-01-05, 00:38:00,VALID,919.148,VALID,0,VALID,97.5511,VALID,-0.0169808,VALID,18.764,VALID,160,VALID,0.729297,
2008-01-05, 00:39:00,VALID,919.143,VALID,0,VALID,97.5295,VALID,-0.0169808,VALID,18.7743,VALID,151,VALID,0.680414,
2008-01-05, 00:40:00,VALID,919.141,VALID,0,VALID,97.513,VALID,-0.0169808,VALID,18.764,VALID,150,VALID,0.650618,
2008-01-05, 00:41:00,VALID,919.125,VALID,0,VALID,97.5906,VALID,-0.0169808,VALID,18.7743,VALID,148,VALID,1.05736,
2008-01-05, 00:42:00,VALID,919.133,VALID,0,VALID,97.5321,VALID,0,VALID,18.78,VALID,143,VALID,0.831321,
2008-01-05, 00:43:00,VALID,919.118,VALID,0,VALID,97.4227,VALID,-0.0169808,VALID,18.7735,VALID,145,VALID,0.936592,
2008-01-05, 00:44:00,VALID,919.107,VALID,0,VALID,97.2371,VALID,-0.0169808,VALID,18.7511,VALID,144,VALID,0.462843,
2008-01-05, 00:45:00,VALID,919.079,VALID,0,VALID,97.1595,VALID,0,VALID,18.6989,VALID,134,VALID,0.507449,
2008-01-05, 00:46:00,VALID,919.047,VALID,0,VALID,97.335,VALID,0,VALID,18.6702,VALID,127,VALID,0.656424,
2008-01-05, 00:47:00,VALID,919.025,VALID,0,VALID,97.5244,VALID,-0.0169808,VALID,18.6209,VALID,127,VALID,0.200462,
2008-01-05, 00:48:00,VALID,918.983,VALID,0,VALID,97.7241,VALID,0,VALID,18.5917,VALID,121,VALID,0,
2008-01-05, 00:49:00,VALID,918.971,VALID,0,VALID,97.8512,VALID,0.0339617,VALID,18.5757,VALID,121,VALID,0,
2008-01-05, 00:50:00,VALID,918.948,VALID,0,VALID,98.075,VALID,0,VALID,18.5634,VALID,128,VALID,0,
2008-01-05, 00:51:00,VALID,918.933,VALID,0,VALID,98.1602,VALID,0,VALID,18.5238,VALID,142,VALID,0,
2008-01-05, 00:52:00,VALID,918.913,VALID,0,VALID,98.1577,VALID,-0.0169808,VALID,18.4782,VALID,145,VALID,0,
2008-01-05, 00:53:00,VALID,918.887,VALID,0,VALID,98.1666,VALID,0.0169808,VALID,18.423,VALID,144,VALID,0,
2008-01-05, 00:54:00,VALID,918.858,VALID,0,VALID,98.4146,VALID,-0.0169808,VALID,18.3811,VALID,142,VALID,0.769231,
2008-01-05, 00:55:00,VALID,918.833,VALID,0,VALID,98.8037,VALID,0,VALID,18.3457,VALID,143,VALID,1.04148,
2008-01-05, 00:56:00,VALID,918.82,VALID,0,VALID,99.2665,VALID,0,VALID,18.3454,VALID,143,VALID,1.14329,
2008-01-05, 00:57:00,VALID,918.83,VALID,0,VALID,99.442,VALID,-0.0169808,VALID,18.326,VALID,143,VALID,1.05952,
2008-01-05, 00:58:00,VALID,918.825,VALID,0,VALID,99.7116,VALID,-0.0509425,VALID,18.3202,VALID,142,VALID,1.07422,
2008-01-05, 00:59:00,VALID,918.812,VALID,0,VALID,99.7739,VALID,0,VALID,18.3102,VALID,138,VALID,0.963423,
2008-01-05, 01:00:00,VALID,918.788,VALID,0,VALID,99.9321,VALID,0,VALID,18.2873,VALID,127,VALID,1.12355,
2008-01-05, 01:01:00,VALID,918.782,VALID,0,VALID,100,VALID,0,VALID,18.2776,VALID,129,VALID,0.910156,
2008-01-05, 01:02:00,VALID,918.78,VALID,0,VALID,100,VALID,-0.0169808,VALID,18.2583,VALID,137,VALID,0.860085,
2008-01-05, 01:03:00,VALID,918.774,VALID,0,VALID,100,VALID,0,VALID,18.2491,VALID,139,VALID,0.714658,
2008-01-05, 01:04:00,VALID,918.74,VALID,0,VALID,100,VALID,-0.0169808,VALID,18.2222,VALID,146,VALID,0.718395,
2008-01-05, 01:05:00,VALID,918.719,VALID,0,VALID,100,VALID,-0.0509425,VALID,18.2254,VALID,160,VALID,0.913542,
2008-01-05, 01:06:00,VALID,918.702,VALID,0,VALID,100,VALID,0.0169808,VALID,18.1963,VALID,161,VALID,1.24473,
2008-01-05, 01:07:00,VALID,918.687,VALID,0,VALID,100,VALID,-0.0169808,VALID,18.1865,VALID,154,VALID,1.18998,
2008-01-05, 01:08:00,VALID,918.678,VALID,0,VALID,100,VALID,0,VALID,18.1865,VALID,163,VALID,1.07758,
2008-01-05, 01:09:00,VALID,918.683,VALID,0,VALID,100,VALID,-0.0169808,VALID,18.1738,VALID,164,VALID,1.08315,
2008-01-05, 01:10:00,VALID,918.677,VALID,0,VALID,100,VALID,-0.0169808,VALID,18.1937,VALID,149,VALID,0.790516,
2008-01-05, 01:11:00,VALID,918.68,VALID,0,VALID,100,VALID,-0.0169808,VALID,18.196,VALID,162,VALID,0.901042,
2008-01-05, 01:12:00,VALID,918.666,VALID,0,VALID,100,VALID,-0.0679233,VALID,18.2106,VALID,164,VALID,0.97218,
2008-01-05, 01:13:00,VALID,918.672,VALID,0,VALID,100,VALID,-0.135847,VALID,18.2271,VALID,164,VALID,0.739099,
2008-01-05, 01:14:00,VALID,918.653,VALID,0,VALID,100,VALID,-0.101885,VALID,18.2465,VALID,162,VALID,1.06707,
2008-01-05, 01:15:00,VALID,918.655,VALID,0,VALID,100,VALID,-0.118866,VALID,18.2785,VALID,166,VALID,0.902616,
2008-01-05, 01:16:00,VALID,918.64,VALID,0,VALID,100,VALID,-0.118866,VALID,18.3084,VALID,169,VALID,0.846591,
2008-01-05, 01:17:00,VALID,918.637,VALID,0,VALID,100,VALID,-0.101885,VALID,18.3403,VALID,162,VALID,0.81907,
2008-01-05, 01:18:00,VALID,918.615,VALID,0,VALID,100,VALID,-0.118866,VALID,18.3531,VALID,171,VALID,0.677024,
2008-01-05, 01:19:00,VALID,918.586,VALID,0,VALID,100,VALID,-0.135847,VALID,18.3855,VALID,155,VALID,0.580031,
2008-01-05, 01:20:00,VALID,918.549,VALID,0,VALID,100,VALID,-0.101885,VALID,18.3987,VALID,168,VALID,0.667578,
2008-01-05, 01:21:00,VALID,918.527,VALID,0,VALID,100,VALID,-0.152827,VALID,18.4217,VALID,172,VALID,0.443056,
2008-01-05, 01:22:00,VALID,918.509,VALID,0,VALID,100,VALID,-0.118866,VALID,18.4312,VALID,173,VALID,1.00645,
2008-01-05, 01:23:00,VALID,918.48,VALID,0,VALID,99.999,VALID,-0.118866,VALID,18.4508,VALID,169,VALID,1.11319,
2008-01-05, 01:24:00,VALID,918.457,VALID,0,VALID,99.9791,VALID,-0.118866,VALID,18.4932,VALID,171,VALID,0.844295,
2008-01-05, 01:25:00,VALID,918.461,VALID,0,VALID,99.8566,VALID,-0.118866,VALID,18.519,VALID,168,VALID,0.804306,
2008-01-05, 01:26:00,VALID,918.445,VALID,0,VALID,99.6493,VALID,-0.118866,VALID,18.5317,VALID,165,VALID,0.685683,
2008-01-05, 01:27:00,VALID,918.446,VALID,0,VALID,99.3975,VALID,-0.0679233,VALID,18.5143,VALID,160,VALID,0.535511,
2008-01-05, 01:28:00,VALID,918.414,VALID,0,VALID,99.2767,VALID,0.0169808,VALID,18.5048,VALID,165,VALID,0.524368,
2008-01-05, 01:29:00,VALID,918.406,VALID,0,VALID,99.2996,VALID,-0.0169808,VALID,18.4884,VALID,167,VALID,0.816667,
2008-01-05, 01:30:00,VALID,918.382,VALID,0,VALID,99.4001,VALID,0,VALID,18.4911,VALID,147,VALID,0.969308,
2008-01-05, 01:31:00,VALID,918.366,VALID,0,VALID,99.3238,VALID,0,VALID,18.4782,VALID,153,VALID,0.652716,
2008-01-05, 01:32:00,VALID,918.354,VALID,0,VALID,99.2882,VALID,-0.0169808,VALID,18.4754,VALID,150,VALID,0.579102,
2008-01-05, 01:33:00,VALID,918.338,VALID,0,VALID,99.3009,VALID,-0.0339617,VALID,18.4659,VALID,139,VALID,0,
2008-01-05, 01:34:00,VALID,918.324,VALID,0,VALID,99.4001,VALID,-0.0339617,VALID,18.4392,VALID,141,VALID,0,
2008-01-05, 01:35:00,VALID,918.298,VALID,0,VALID,99.5514,VALID,0,VALID,18.4557,VALID,145,VALID,0.794744,
2008-01-05, 01:36:00,VALID,918.27,VALID,0,VALID,99.6289,VALID,0,VALID,18.4684,VALID,147,VALID,1.01451,
2008-01-05, 01:37:00,VALID,918.245,VALID,0,VALID,99.5539,VALID,0,VALID,18.4615,VALID,147,VALID,0.843205,
2008-01-05, 01:38:00,VALID,918.228,VALID,0,VALID,99.5755,VALID,0,VALID,18.4782,VALID,154,VALID,0.914453,
2008-01-05, 01:39:00,VALID,918.22,VALID,0,VALID,99.512,VALID,0,VALID,18.4914,VALID,159,VALID,1.35193,
2008-01-05, 01:40:00,VALID,918.203,VALID,0,VALID,99.4751,VALID,0,VALID,18.5041,VALID,157,VALID,1.22356,
2008-01-05, 01:41:00,VALID,918.187,VALID,0,VALID,99.456,VALID,-0.0169808,VALID,18.5039,VALID,149,VALID,1.106,
2008-01-05, 01:42:00,VALID,918.164,VALID,0,VALID,99.3835,VALID,0,VALID,18.5208,VALID,134,VALID,1.09121,
2008-01-05, 01:43:00,VALID,918.152,VALID,0,VALID,99.2932,VALID,-0.0509425,VALID,18.521,VALID,131,VALID,1.07013,
2008-01-05, 01:44:00,VALID,918.13,VALID,0,VALID,99.3377,VALID,-0.0339617,VALID,18.5243,VALID,126,VALID,1.39924,
2008-01-05, 01:45:00,VALID,918.102,VALID,0,VALID,99.3721,VALID,-0.0509425,VALID,18.5275,VALID,136,VALID,1.19757,
2008-01-05, 01:46:00,VALID,918.072,VALID,0,VALID,99.498,VALID,-0.0679233,VALID,18.5474,VALID,139,VALID,1.32279,
2008-01-05, 01:47:00,VALID,918.034,VALID,0,VALID,99.4229,VALID,-0.0339617,VALID,18.5505,VALID,140,VALID,0.75657,
2008-01-05, 01:48:00,VALID,918.007,VALID,0,VALID,99.306,VALID,-0.0339617,VALID,18.544,VALID,146,VALID,0.613009,
2008-01-05, 01:49:00,VALID,918.009,VALID,0,VALID,99.2437,VALID,-0.0509425,VALID,18.5243,VALID,129,VALID,0.614281,
2008-01-05, 01:50:00,VALID,918.011,VALID,0,VALID,99.2678,VALID,-0.0679233,VALID,18.5183,VALID,114,VALID,0.526414,
2008-01-05, 01:51:00,VALID,918.029,VALID,0,VALID,99.1114,VALID,-0.0679233,VALID,18.4596,VALID,95,VALID,0.4641,
2008-01-05, 01:52:00,VALID,918.059,VALID,0,VALID,99.2322,VALID,-0.0509425,VALID,18.4045,VALID,86,VALID,0.927083,
2008-01-05, 01:53:00,VALID,918.057,VALID,0,VALID,99.2627,VALID,-0.0339617,VALID,18.3658,VALID,85,VALID,0.813086,
2008-01-05, 01:54:00,VALID,918.064,VALID,0,VALID,99.3263,VALID,-0.0679233,VALID,18.2977,VALID,85,VALID,0.5087,
2008-01-05, 01:55:00,VALID,918.052,VALID,0,VALID,99.69,VALID,-0.0339617,VALID,18.2783,VALID,85,VALID,0.503472,
2008-01-05, 01:56:00,VALID,918.026,VALID,0,VALID,99.821,VALID,-0.0509425,VALID,18.265,VALID,85,VALID,0.19371,
2008-01-05, 01:57:00,VALID,918.018,VALID,0,VALID,99.8527,VALID,-0.0849042,VALID,18.2493,VALID,85,VALID,0,
2008-01-05, 01:58:00,VALID,918.009,VALID,0,VALID,99.5565,VALID,-0.0339617,VALID,18.1682,VALID,85,VALID,0,
2008-01-05, 01:59:00,VALID,918.003,VALID,0,VALID,99.8599,VALID,-0.0849042,VALID,18.1159,VALID,85,VALID,0,
2008-01-05, 02:00:00,VALID,918.006,VALID,0,VALID,100,VALID,-0.0509425,VALID,18.1358,VALID,85,VALID,0,
2008-01-05, 02:01:00,VALID,918.012,VALID,0,VALID,100,VALID,-0.0169808,VALID,18.1548,VALID,85,VALID,0,
2008-01-05, 02:02:00,VALID,918.004,VALID,0,VALID,100,VALID,-0.0849042,VALID,18.1645,VALID,85,VALID,0,
2008-01-05, 02:03:00,VALID,918.011,VALID,0,VALID,100,VALID,-0.0169808,VALID,18.1742,VALID,85,VALID,0,
2008-01-05, 02:04:00,VALID,917.994,VALID,0,VALID,100,VALID,-0.0679233,VALID,18.177,VALID,85,VALID,0,
2008-01-05, 02:05:00,VALID,917.986,VALID,0,VALID,100,VALID,-0.0169808,VALID,18.1708,VALID,85,VALID,0,
2008-01-05, 02:06:00,VALID,917.965,VALID,0,VALID,99.9611,VALID,-0.0849042,VALID,18.096,VALID,85,VALID,0,
2008-01-05, 02:07:00,VALID,917.944,VALID,0,VALID,99.9837,VALID,-0.0509425,VALID,18.0216,VALID,85,VALID,0,
2008-01-05, 02:08:00,VALID,917.925,VALID,0,VALID,100,VALID,-0.0679233,VALID,18.0543,VALID,85,VALID,0,
2008-01-05, 02:09:00,VALID,917.909,VALID,0,VALID,100,VALID,-0.0339617,VALID,18.0149,VALID,85,VALID,0,
2008-01-05, 02:10:00,VALID,917.889,VALID,0,VALID,100,VALID,-0.0679233,VALID,17.9012,VALID,85,VALID,0,
2008-01-05, 02:11:00,VALID,917.879,VALID,0,VALID,100,VALID,-0.0339617,VALID,17.8625,VALID,85,VALID,0,
2008-01-05, 02:12:00,VALID,917.859,VALID,0,VALID,100,VALID,-0.0169808,VALID,17.8981,VALID,85,VALID,0,
2008-01-05, 02:13:00,VALID,917.853,VALID,0,VALID,100,VALID,-0.0169808,VALID,17.9463,VALID,85,VALID,0,
2008-01-05, 02:14:00,VALID,917.817,VALID,0,VALID,100,VALID,0,VALID,17.9693,VALID,85,VALID,0,
2008-01-05, 02:15:00,VALID,917.808,VALID,0,VALID,100,VALID,0,VALID,17.9917,VALID,86,VALID,0,
2008-01-05, 02:16:00,VALID,917.785,VALID,0,VALID,100,VALID,-0.0169808,VALID,18.0601,VALID,90,VALID,0.231957,
2008-01-05, 02:17:00,VALID,917.767,VALID,0,VALID,100,VALID,-0.0339617,VALID,18.1346,VALID,111,VALID,1.10792,
2008-01-05, 02:18:00,VALID,917.741,VALID,0,VALID,100,VALID,-0.0339617,VALID,18.1643,VALID,134,VALID,1.09102,
2008-01-05, 02:19:00,VALID,917.715,VALID,0,VALID,100,VALID,-0.0169808,VALID,18.1773,VALID,135,VALID,1.14102,
2008-01-05, 02:20:00,VALID,917.701,VALID,0,VALID,100,VALID,-0.0339617,VALID,18.193,VALID,141,VALID,1.27717,
2008-01-05, 02:21:00,VALID,917.679,VALID,0,VALID,100,VALID,-0.0339617,VALID,18.2032,VALID,144,VALID,1.27961,
2008-01-05, 02:22:00,VALID,917.704,VALID,0,VALID,100,VALID,0,VALID,18.1868,VALID,142,VALID,1.25686,
2008-01-05, 02:23:00,VALID,917.71,VALID,0,VALID,100,VALID,-0.0169808,VALID,18.1902,VALID,145,VALID,1.2702,
2008-01-05, 02:24:00,VALID,917.716,VALID,0,VALID,100,VALID,-0.0509425,VALID,18.1902,VALID,148,VALID,1.11338,
2008-01-05, 02:25:00,VALID,917.702,VALID,0,VALID,100,VALID,-0.0169808,VALID,18.2064,VALID,145,VALID,1.15518,
2008-01-05, 02:26:00,VALID,917.688,VALID,0,VALID,100,VALID,-0.0169808,VALID,18.2296,VALID,147,VALID,1.2927,
2008-01-05, 02:27:00,VALID,917.678,VALID,0,VALID,99.9878,VALID,-0.0679233,VALID,18.2287,VALID,158,VALID,1.26116,
2008-01-05, 02:28:00,VALID,917.663,VALID,0,VALID,99.8578,VALID,-0.0339617,VALID,18.2259,VALID,159,VALID,1.09464,
2008-01-05, 02:29:00,VALID,917.655,VALID,0,VALID,99.896,VALID,-0.0509425,VALID,18.2257,VALID,160,VALID,1.13281,
2008-01-05, 02:30:00,VALID,917.666,VALID,0,VALID,99.8718,VALID,-0.0509425,VALID,18.2159,VALID,162,VALID,0.921342,
2008-01-05, 02:31:00,VALID,917.658,VALID,0,VALID,99.8337,VALID,-0.101885,VALID,18.2132,VALID,159,VALID,0.902798,
2008-01-05, 02:32:00,VALID,917.662,VALID,0,VALID,99.8744,VALID,-0.0509425,VALID,18.1932,VALID,159,VALID,1.08026,
2008-01-05, 02:33:00,VALID,917.673,VALID,0,VALID,99.9049,VALID,-0.0339617,VALID,18.193,VALID,159,VALID,0.953835,
2008-01-05, 02:34:00,VALID,917.669,VALID,0,VALID,99.9392,VALID,-0.0679233,VALID,18.2032,VALID,159,VALID,0.737393,
2008-01-05, 02:35:00,VALID,917.687,VALID,0,VALID,99.9301,VALID,-0.0679233,VALID,18.2099,VALID,159,VALID,0.696987,
2008-01-05, 02:36:00,VALID,917.682,VALID,0,VALID,99.9952,VALID,-0.0509425,VALID,18.2164,VALID,159,VALID,0.695313,
2008-01-05, 02:37:00,VALID,917.681,VALID,0,VALID,99.8965,VALID,-0.0509425,VALID,18.2129,VALID,159,VALID,0.107329,
2008-01-05, 02:38:00,VALID,917.683,VALID,0,VALID,99.5348,VALID,-0.0339617,VALID,18.1645,VALID,159,VALID,0.00223214,
2008-01-05, 02:39:00,VALID,917.67,VALID,0,VALID,99.2894,VALID,-0.0679233,VALID,18.08,VALID,159,VALID,0,
2008-01-05, 02:40:00,VALID,917.663,VALID,0,VALID,99.8082,VALID,-0.0169808,VALID,18.0767,VALID,159,VALID,0,
2008-01-05, 02:41:00,VALID,917.673,VALID,0,VALID,99.7396,VALID,-0.0169808,VALID,18.0767,VALID,159,VALID,0,
2008-01-05, 02:42:00,VALID,917.671,VALID,0,VALID,99.5806,VALID,-0.0509425,VALID,18.0374,VALID,159,VALID,0,
2008-01-05, 02:43:00,VALID,917.668,VALID,0,VALID,99.5628,VALID,-0.0509425,VALID,18.0089,VALID,159,VALID,0.0683594,
2008-01-05, 02:44:00,VALID,917.661,VALID,0,VALID,99.0745,VALID,-0.0339617,VALID,17.8979,VALID,159,VALID,0,
2008-01-05, 02:45:00,VALID,917.65,VALID,0,VALID,99.0593,VALID,-0.0339617,VALID,17.755,VALID,159,VALID,0,
2008-01-05, 02:46:00,VALID,917.645,VALID,0,VALID,99.7383,VALID,-0.0339617,VALID,17.7589,VALID,159,VALID,0,
2008-01-05, 02:47:00,VALID,917.625,VALID,0,VALID,99.9654,VALID,-0.0509425,VALID,17.7365,VALID,156,VALID,0,
2008-01-05, 02:48:00,VALID,917.606,VALID,0,VALID,100,VALID,0,VALID,17.7527,VALID,138,VALID,0,
2008-01-05, 02:49:00,VALID,917.595,VALID,0,VALID,100,VALID,-0.0169808,VALID,17.8305,VALID,138,VALID,0,
2008-01-05, 02:50:00,VALID,917.574,VALID,0,VALID,100,VALID,-0.0339617,VALID,17.9438,VALID,138,VALID,0,
2008-01-05, 02:51:00,VALID,917.564,VALID,0,VALID,100,VALID,-0.0509425,VALID,18.0218,VALID,124,VALID,0.0109375,
2008-01-05, 02:52:00,VALID,917.563,VALID,0,VALID,100,VALID,-0.0679233,VALID,18.0577,VALID,103,VALID,0.880208,
2008-01-05, 02:53:00,VALID,917.534,VALID,0,VALID,100,VALID,0,VALID,18.0895,VALID,102,VALID,0.931784,
2008-01-05, 02:54:00,VALID,917.506,VALID,0,VALID,100,VALID,-0.0339617,VALID,18.1189,VALID,112,VALID,1.17857,
2008-01-05, 02:55:00,VALID,917.491,VALID,0,VALID,100,VALID,-0.0339617,VALID,18.1321,VALID,122,VALID,1.15199,
2008-01-05, 02:56:00,VALID,917.457,VALID,0,VALID,100,VALID,0,VALID,18.1448,VALID,133,VALID,1.20508,
2008-01-05, 02:57:00,VALID,917.437,VALID,0,VALID,100,VALID,-0.0169808,VALID,18.1578,VALID,138,VALID,1.23597,
2008-01-05, 02:58:00,VALID,917.408,VALID,0,VALID,100,VALID,-0.0679233,VALID,18.1481,VALID,135,VALID,1.48256,
2008-01-05, 02:59:00,VALID,917.386,VALID,0,VALID,100,VALID,-0.0509425,VALID,18.1481,VALID,135,VALID,1.38161,
2008-01-05, 03:00:00,VALID,917.368,VALID,0,VALID,100,VALID,0,VALID,18.1184,VALID,138,VALID,1.33145,
2008-01-05, 03:01:00,VALID,917.362,VALID,0,VALID,100,VALID,-0.0849042,VALID,18.0964,VALID,140,VALID,1.10174,
2008-01-05, 03:02:00,VALID,917.352,VALID,0,VALID,100,VALID,0,VALID,18.0568,VALID,140,VALID,1.50872,
2008-01-05, 03:03:00,VALID,917.373,VALID,0,VALID,100,VALID,-0.0509425,VALID,18.0837,VALID,149,VALID,1.29892,
2008-01-05, 03:04:00,VALID,917.357,VALID,0,VALID,100,VALID,-0.0339617,VALID,18.0929,VALID,144,VALID,1.1942,
2008-01-05, 03:05:00,VALID,917.368,VALID,0,VALID,100,VALID,-0.0509425,VALID,18.1027,VALID,143,VALID,1.17287,
2008-01-05, 03:06:00,VALID,917.37,VALID,0,VALID,100,VALID,-0.0849042,VALID,18.1124,VALID,144,VALID,1.2279,
2008-01-05, 03:07:00,VALID,917.372,VALID,0,VALID,100,VALID,-0.0339617,VALID,18.1226,VALID,143,VALID,1.03452,
2008-01-05, 03:08:00,VALID,917.367,VALID,0,VALID,100,VALID,-0.0679233,VALID,18.1131,VALID,142,VALID,0.900391,
2008-01-05, 03:09:00,VALID,917.362,VALID,0,VALID,100,VALID,-0.0339617,VALID,18.0997,VALID,147,VALID,1.13481,
2008-01-05, 03:10:00,VALID,917.356,VALID,0,VALID,100,VALID,-0.0509425,VALID,18.0733,VALID,151,VALID,0.975497,
2008-01-05, 03:11:00,VALID,917.336,VALID,0,VALID,100,VALID,-0.0509425,VALID,18.0603,VALID,150,VALID,1.00191,
2008-01-05, 03:12:00,VALID,917.317,VALID,0,VALID,100,VALID,-0.0509425,VALID,18.0246,VALID,148,VALID,0.996466,
2008-01-05, 03:13:00,VALID,917.307,VALID,0,VALID,100,VALID,-0.0339617,VALID,18.0151,VALID,148,VALID,1.01563,
2008-01-05, 03:14:00,VALID,917.294,VALID,0,VALID,100,VALID,0,VALID,17.9954,VALID,152,VALID,1.18306,
2008-01-05, 03:15:00,VALID,917.302,VALID,0,VALID,100,VALID,-0.0509425,VALID,18.0119,VALID,155,VALID,1.10156,
2008-01-05, 03:16:00,VALID,917.313,VALID,0,VALID,100,VALID,-0.0509425,VALID,18.0149,VALID,154,VALID,1.06286,
2008-01-05, 03:17:00,VALID,917.317,VALID,0,VALID,100,VALID,-0.0509425,VALID,18.0184,VALID,151,VALID,1.07919,
2008-01-05, 03:18:00,VALID,917.321,VALID,0,VALID,100,VALID,-0.0169808,VALID,18.0376,VALID,153,VALID,0.934766,
2008-01-05, 03:19:00,VALID,917.313,VALID,0,VALID,100,VALID,0,VALID,18.0406,VALID,152,VALID,0.899771,
2008-01-05, 03:20:00,VALID,917.305,VALID,0,VALID,100,VALID,-0.0339617,VALID,18.057,VALID,152,VALID,0.944741,
2008-01-05, 03:21:00,VALID,917.286,VALID,0,VALID,100,VALID,0,VALID,18.0503,VALID,152,VALID,0.878634,
2008-01-05, 03:22:00,VALID,917.278,VALID,0,VALID,100,VALID,-0.0339617,VALID,18.0378,VALID,152,VALID,1.0832,
2008-01-05, 03:23:00,VALID,917.255,VALID,0,VALID,100,VALID,-0.0339617,VALID,18.051,VALID,153,VALID,1.25781,
2008-01-05, 03:24:00,VALID,917.249,VALID,0,VALID,100,VALID,0,VALID,18.0343,VALID,155,VALID,1.24146,
2008-01-05, 03:25:00,VALID,917.242,VALID,0,VALID,100,VALID,0,VALID,18.0538,VALID,157,VALID,1.36864,
2008-01-05, 03:26:00,VALID,917.237,VALID,0,VALID,100,VALID,0,VALID,18.083,VALID,154,VALID,1.37891,
2008-01-05, 03:27:00,VALID,917.232,VALID,0,VALID,100,VALID,0,VALID,18.1122,VALID,152,VALID,1.17746,
2008-01-05, 03:28:00,VALID,917.228,VALID,0,VALID,100,VALID,0,VALID,18.1284,VALID,156,VALID,1.14639,
2008-01-05, 03:29:00,VALID,917.216,VALID,0,VALID,100,VALID,-0.0169808,VALID,18.1381,VALID,152,VALID,1.07031,
2008-01-05, 03:30:00,VALID,917.219,VALID,0,VALID,100,VALID,-0.0169808,VALID,18.1314,VALID,153,VALID,1.06432,
2008-01-05, 03:31:00,VALID,917.19,VALID,0,VALID,100,VALID,-0.0339617,VALID,18.1511,VALID,148,VALID,1.05766,
2008-01-05, 03:32:00,VALID,917.189,VALID,0,VALID,100,VALID,-0.0679233,VALID,18.1513,VALID,148,VALID,1.07965,
2008-01-05, 03:33:00,VALID,917.172,VALID,0,VALID,100,VALID,-0.0169808,VALID,18.1513,VALID,151,VALID,0.972656,
2008-01-05, 03:34:00,VALID,917.172,VALID,0,VALID,100,VALID,-0.0339617,VALID,18.161,VALID,149,VALID,0.95846,
2008-01-05, 03:35:00,VALID,917.195,VALID,0,VALID,100,VALID,-0.0509425,VALID,18.1543,VALID,140,VALID,0.998224,
2008-01-05, 03:36:00,VALID,917.21,VALID,0,VALID,100,VALID,-0.0169808,VALID,18.1812,VALID,131,VALID,1.05097,
2008-01-05, 03:37:00,VALID,917.211,VALID,0,VALID,100,VALID,-0.0679233,VALID,18.1907,VALID,127,VALID,1.09508,
2008-01-05, 03:38:00,VALID,917.207,VALID,0,VALID,100,VALID,-0.0339617,VALID,18.19,VALID,130,VALID,1.20541,